Time,TemperatureF,DewpointF,PressureIn,WindDirection,WindDirectionDegrees,WindSpeedMPH,WindSpeedGustMPH,Humidity,HourlyPrecipIn,Conditions,Clouds,dailyrainin,SolarRadiationWatts/m^2,SoftwareType,DateUTC
2013-03-06 00:02:00,20.0,17.0,-100.00,North,8,3.0,5.0,88,0.00,,,0.34,0.000000,,2013-03-06 06:02:00,
2013-03-06 00:32:00,21.0,18.0,-100.00,NW,308,3.0,6.0,88,0.00,,,0.33,0.000000,,2013-03-06 06:32:00,
2013-03-06 00:42:00,21.0,18.0,-100.00,NW,308,3.0,6.0,88,0.00,,,0.33,0.000000,,2013-03-06 06:42:00,
2013-03-06 00:52:00,21.0,18.0,-100.00,NW,308,3.0,6.0,88,0.00,,,0.33,0.000000,,2013-03-06 06:52:00,
2013-03-06 01:01:00,21.0,18.0,-100.00,NW,308,3.0,6.0,88,0.00,,,0.33,0.000000,,2013-03-06 07:01:00,
2013-03-06 01:32:00,21.0,17.0,-100.00,NW,324,3.0,6.0,86,0.00,,,0.33,0.000000,,2013-03-06 07:32:00,
2013-03-06 01:42:00,21.0,17.0,-100.00,NW,324,3.0,6.0,86,0.00,,,0.33,0.000000,,2013-03-06 07:42:00,
2013-03-06 01:52:00,21.0,17.0,-100.00,NW,324,3.0,6.0,86,0.00,,,0.33,0.000000,,2013-03-06 07:52:00,
2013-03-06 02:01:00,21.0,17.0,-100.00,NW,324,3.0,6.0,86,0.00,,,0.33,0.000000,,2013-03-06 08:01:00,
2013-03-06 02:32:00,18.0,15.0,-100.00,NNW,332,5.0,9.0,86,0.00,,,-99.99,0.000000,,2013-03-06 08:32:00,
2013-03-06 02:42:00,18.0,15.0,-100.00,NNW,332,5.0,9.0,86,0.00,,,-99.99,0.000000,,2013-03-06 08:42:00,
2013-03-06 02:52:00,18.0,15.0,-100.00,NNW,332,5.0,9.0,86,0.00,,,-99.99,0.000000,,2013-03-06 08:52:00,
2013-03-06 03:01:00,18.0,15.0,-100.00,NNW,332,5.0,9.0,86,0.00,,,-99.99,0.000000,,2013-03-06 09:01:00,
2013-03-06 03:32:00,15.0,12.0,-100.00,WNW,300,3.0,6.0,89,0.00,,,0.27,0.000000,,2013-03-06 09:32:00,
2013-03-06 03:42:00,15.0,12.0,-100.00,WNW,300,3.0,6.0,89,0.00,,,0.27,0.000000,,2013-03-06 09:42:00,
2013-03-06 03:52:00,15.0,12.0,-100.00,WNW,300,3.0,6.0,89,0.00,,,0.27,0.000000,,2013-03-06 09:52:00,
2013-03-06 04:01:00,15.0,12.0,-100.00,WNW,300,3.0,6.0,89,0.00,,,0.27,0.000000,,2013-03-06 10:01:00,
2013-03-06 04:32:00,13.0,10.0,-100.00,NNW,337,3.0,6.0,89,0.00,,,0.24,0.000000,,2013-03-06 10:32:00,
2013-03-06 04:42:00,13.0,10.0,-100.00,NNW,337,3.0,6.0,89,0.00,,,0.24,0.000000,,2013-03-06 10:42:00,
2013-03-06 04:52:00,13.0,10.0,-100.00,NNW,337,3.0,6.0,89,0.00,,,0.24,0.000000,,2013-03-06 10:52:00,
2013-03-06 05:02:00,13.0,10.0,-100.00,NNW,337,3.0,6.0,89,0.00,,,0.24,0.000000,,2013-03-06 11:02:00,
2013-03-06 05:32:00,10.0,7.0,-100.00,NW,306,3.0,6.0,87,0.00,,,0.21,0.000000,,2013-03-06 11:32:00,
2013-03-06 05:42:00,10.0,7.0,-100.00,NW,306,3.0,6.0,87,0.00,,,0.21,0.000000,,2013-03-06 11:42:00,
2013-03-06 05:52:00,10.0,7.0,-100.00,NW,306,3.0,6.0,87,0.00,,,0.21,0.000000,,2013-03-06 11:52:00,
2013-03-06 06:02:00,10.0,7.0,-100.00,NW,306,3.0,6.0,87,0.00,,,0.21,0.000000,,2013-03-06 12:02:00,
2013-03-06 06:33:00,9.0,6.0,-100.00,NW,310,3.0,5.0,88,0.00,,,0.17,0.000000,,2013-03-06 12:33:00,
2013-03-06 06:43:00,9.0,6.0,-100.00,NW,310,3.0,5.0,88,0.00,,,0.17,0.000000,,2013-03-06 12:43:00,
2013-03-06 06:52:00,9.0,6.0,-100.00,NW,310,3.0,5.0,88,0.00,,,0.17,0.000000,,2013-03-06 12:52:00,
2013-03-06 07:02:00,9.0,6.0,-100.00,NW,310,3.0,5.0,88,0.00,,,0.17,0.000000,,2013-03-06 13:02:00,
2013-03-06 07:32:00,8.0,4.0,-100.00,WNW,294,3.0,6.0,85,0.00,,,0.14,4.000000,,2013-03-06 13:32:00,
2013-03-06 07:42:00,8.0,4.0,-100.00,WNW,294,3.0,6.0,85,0.00,,,0.14,4.000000,,2013-03-06 13:42:00,
2013-03-06 07:52:00,8.0,4.0,-100.00,WNW,294,3.0,6.0,85,0.00,,,0.14,4.000000,,2013-03-06 13:52:00,
2013-03-06 08:01:00,8.0,4.0,-100.00,WNW,294,3.0,6.0,85,0.00,,,0.14,4.000000,,2013-03-06 14:01:00,
2013-03-06 08:32:00,16.0,11.0,-100.00,NW,315,3.0,6.0,81,0.00,,,0.11,72.000000,,2013-03-06 14:32:00,
2013-03-06 08:42:00,16.0,11.0,-100.00,NW,315,3.0,6.0,81,0.00,,,0.11,72.000000,,2013-03-06 14:42:00,
2013-03-06 08:52:00,16.0,11.0,-100.00,NW,315,3.0,6.0,81,0.00,,,0.11,72.000000,,2013-03-06 14:52:00,
2013-03-06 09:02:00,16.0,11.0,-100.00,NW,315,3.0,6.0,81,0.00,,,0.11,72.000000,,2013-03-06 15:02:00,
2013-03-06 09:32:00,20.0,14.0,-100.00,NNW,334,6.0,10.0,76,0.00,,,0.07,243.000000,,2013-03-06 15:32:00,
2013-03-06 09:42:00,20.0,14.0,-100.00,NNW,334,6.0,10.0,76,0.00,,,0.07,243.000000,,2013-03-06 15:42:00,
2013-03-06 09:52:00,20.0,14.0,-100.00,NNW,334,6.0,10.0,76,0.00,,,0.07,243.000000,,2013-03-06 15:52:00,
2013-03-06 10:01:00,20.0,14.0,-100.00,NNW,334,6.0,10.0,76,0.00,,,0.07,243.000000,,2013-03-06 16:01:00,
2013-03-06 10:32:00,20.0,12.0,-100.00,NNW,331,8.0,16.0,72,0.00,,,0.04,318.000000,,2013-03-06 16:32:00,
2013-03-06 10:42:00,20.0,12.0,-100.00,NNW,331,8.0,16.0,72,0.00,,,0.04,318.000000,,2013-03-06 16:42:00,
2013-03-06 10:52:00,20.0,12.0,-100.00,NNW,331,8.0,16.0,72,0.00,,,0.04,318.000000,,2013-03-06 16:52:00,
2013-03-06 11:01:00,20.0,12.0,-100.00,NNW,331,8.0,16.0,72,0.00,,,0.04,318.000000,,2013-03-06 17:01:00,
2013-03-06 11:32:00,24.0,14.0,-100.00,North,356,8.0,14.0,66,0.00,,,0.03,413.000000,,2013-03-06 17:32:00,
2013-03-06 11:42:00,24.0,14.0,-100.00,North,356,8.0,14.0,66,0.00,,,0.03,413.000000,,2013-03-06 17:42:00,
2013-03-06 11:53:00,24.0,14.0,-100.00,North,356,8.0,14.0,66,0.00,,,0.03,413.000000,,2013-03-06 17:53:00,
2013-03-06 12:02:00,24.0,14.0,-100.00,North,356,8.0,14.0,66,0.00,,,0.03,413.000000,,2013-03-06 18:02:00,
2013-03-06 12:32:00,27.0,15.0,-100.00,NW,311,6.0,14.0,60,0.00,,,0.03,666.000000,,2013-03-06 18:32:00,
2013-03-06 12:42:00,27.0,15.0,-100.00,NW,311,6.0,14.0,60,0.00,,,0.03,666.000000,,2013-03-06 18:42:00,
2013-03-06 12:53:00,27.0,15.0,-100.00,NW,311,6.0,14.0,60,0.00,,,0.03,666.000000,,2013-03-06 18:53:00,
2013-03-06 13:02:00,27.0,15.0,-100.00,NW,311,6.0,14.0,60,0.00,,,0.03,666.000000,,2013-03-06 19:02:00,
2013-03-06 13:33:00,28.0,14.0,-100.00,NW,321,6.0,12.0,56,0.00,,,0.02,654.000000,,2013-03-06 19:33:00,
2013-03-06 13:43:00,28.0,14.0,-100.00,NW,321,6.0,12.0,56,0.00,,,0.02,654.000000,,2013-03-06 19:43:00,
2013-03-06 13:53:00,28.0,14.0,-100.00,NW,321,6.0,12.0,56,0.00,,,0.02,654.000000,,2013-03-06 19:53:00,
2013-03-06 14:02:00,28.0,14.0,-100.00,NW,321,6.0,12.0,56,0.00,,,0.02,654.000000,,2013-03-06 20:02:00,
2013-03-06 14:33:00,30.0,15.0,-100.00,NW,324,5.0,12.0,53,0.00,,,0.02,631.000000,,2013-03-06 20:33:00,
2013-03-06 14:43:00,30.0,15.0,-100.00,NW,324,5.0,12.0,53,0.00,,,0.02,631.000000,,2013-03-06 20:43:00,
2013-03-06 14:53:00,30.0,15.0,-100.00,NW,324,5.0,12.0,53,0.00,,,0.02,631.000000,,2013-03-06 20:53:00,
2013-03-06 15:02:00,30.0,15.0,-100.00,NW,324,5.0,12.0,53,0.00,,,0.02,631.000000,,2013-03-06 21:02:00,
2013-03-06 15:33:00,30.0,14.0,-100.00,NW,312,6.0,10.0,50,0.00,,,0.02,553.000000,,2013-03-06 21:33:00,
2013-03-06 15:42:00,30.0,14.0,-100.00,NW,312,6.0,10.0,50,0.00,,,0.02,553.000000,,2013-03-06 21:42:00,
2013-03-06 15:52:00,30.0,14.0,-100.00,NW,312,6.0,10.0,50,0.00,,,0.02,553.000000,,2013-03-06 21:52:00,
2013-03-06 16:01:00,30.0,14.0,-100.00,NW,312,6.0,10.0,50,0.00,,,0.02,553.000000,,2013-03-06 22:01:00,
2013-03-06 16:32:00,31.0,14.0,-100.00,NW,307,4.0,10.0,48,0.00,,,-99.99,422.000000,,2013-03-06 22:32:00,
2013-03-06 16:42:00,31.0,14.0,-100.00,NW,307,4.0,10.0,48,0.00,,,-99.99,422.000000,,2013-03-06 22:42:00,
2013-03-06 16:52:00,31.0,14.0,-100.00,NW,307,4.0,10.0,48,0.00,,,-99.99,422.000000,,2013-03-06 22:52:00,
2013-03-06 17:01:00,31.0,14.0,-100.00,NW,307,4.0,10.0,48,0.00,,,-99.99,422.000000,,2013-03-06 23:01:00,
2013-03-06 17:32:00,28.0,12.0,-100.00,WSW,255,4.0,7.0,50,0.00,,,0.00,248.000000,,2013-03-06 23:32:00,
2013-03-06 17:42:00,28.0,12.0,-100.00,WSW,255,4.0,7.0,50,0.00,,,0.00,248.000000,,2013-03-06 23:42:00,
2013-03-06 17:52:00,28.0,12.0,-100.00,WSW,255,4.0,7.0,50,0.00,,,0.00,248.000000,,2013-03-06 23:52:00,
2013-03-06 18:01:00,28.0,12.0,-100.00,WSW,255,4.0,7.0,50,0.00,,,0.00,248.000000,,2013-03-07 00:01:00,
2013-03-06 18:32:00,23.0,11.0,-100.00,WSW,248,3.0,7.0,59,0.00,,,0.00,52.000000,,2013-03-07 00:32:00,
2013-03-06 18:42:00,23.0,11.0,-100.00,WSW,248,3.0,7.0,59,0.00,,,0.00,52.000000,,2013-03-07 00:42:00,
2013-03-06 18:52:00,23.0,11.0,-100.00,WSW,248,3.0,7.0,59,0.00,,,0.00,52.000000,,2013-03-07 00:52:00,
2013-03-06 19:01:00,23.0,11.0,-100.00,WSW,248,3.0,7.0,59,0.00,,,0.00,52.000000,,2013-03-07 01:01:00,
2013-03-06 19:32:00,14.0,9.0,-100.00,SW,229,2.0,4.0,81,0.00,,,0.00,1.000000,,2013-03-07 01:32:00,
2013-03-06 19:42:00,14.0,9.0,-100.00,SW,229,2.0,4.0,81,0.00,,,0.00,1.000000,,2013-03-07 01:42:00,
2013-03-06 19:52:00,14.0,9.0,-100.00,SW,229,2.0,4.0,81,0.00,,,0.00,1.000000,,2013-03-07 01:52:00,
2013-03-06 20:01:00,14.0,9.0,-100.00,SW,229,2.0,4.0,81,0.00,,,0.00,1.000000,,2013-03-07 02:01:00,
2013-03-06 20:32:00,10.0,7.0,-100.00,WNW,297,1.0,2.0,87,0.00,,,0.00,0.000000,,2013-03-07 02:32:00,
2013-03-06 20:42:00,10.0,7.0,-100.00,WNW,297,1.0,2.0,87,0.00,,,0.00,0.000000,,2013-03-07 02:42:00,
2013-03-06 20:52:00,10.0,7.0,-100.00,WNW,297,1.0,2.0,87,0.00,,,0.00,0.000000,,2013-03-07 02:52:00,
2013-03-06 21:02:00,10.0,7.0,-100.00,WNW,297,1.0,2.0,87,0.00,,,0.00,0.000000,,2013-03-07 03:02:00,
2013-03-06 21:32:00,6.0,2.0,-100.00,SSW,196,1.0,2.0,85,0.00,,,0.00,0.000000,,2013-03-07 03:32:00,
2013-03-06 21:42:00,6.0,2.0,-100.00,SSW,196,1.0,2.0,85,0.00,,,0.00,0.000000,,2013-03-07 03:42:00,
2013-03-06 21:52:00,6.0,2.0,-100.00,SSW,196,1.0,2.0,85,0.00,,,0.00,0.000000,,2013-03-07 03:52:00,
2013-03-06 22:01:00,6.0,2.0,-100.00,SSW,196,1.0,2.0,85,0.00,,,0.00,0.000000,,2013-03-07 04:01:00,
2013-03-06 22:32:00,2.0,-2.0,-100.00,ESE,117,1.0,2.0,81,0.00,,,0.00,0.000000,,2013-03-07 04:32:00,
2013-03-06 22:42:00,2.0,-2.0,-100.00,ESE,117,1.0,2.0,81,0.00,,,0.00,0.000000,,2013-03-07 04:42:00,
2013-03-06 22:52:00,2.0,-2.0,-100.00,ESE,117,1.0,2.0,81,0.00,,,0.00,0.000000,,2013-03-07 04:52:00,
2013-03-06 23:02:00,2.0,-2.0,-100.00,ESE,117,1.0,2.0,81,0.00,,,0.00,0.000000,,2013-03-07 05:02:00,
2013-03-06 23:32:00,1.0,-4.0,-100.00,NW,310,0.0,2.0,80,0.00,,,0.00,0.000000,,2013-03-07 05:32:00,
2013-03-06 23:42:00,1.0,-4.0,-100.00,NW,310,0.0,2.0,80,0.00,,,0.00,0.000000,,2013-03-07 05:42:00,
2013-03-06 23:52:00,1.0,-4.0,-100.00,NW,310,0.0,2.0,80,0.00,,,0.00,0.000000,,2013-03-07 05:52:00,